Retour au catalogue

FENGYUN 1C DEB

ActifSSO
NORAD 38122·DEBRIS·🇨🇳 China

Lancé May 10, 1999 depuis Taiyuan Satellite Launch Center

Loading…

Prochains Passages (prochaines 24 heures)

TLE

FraisSource: Space-Track

Époque: Sep 12, 2026, 11:09 UTC

1 38122U 99025EPT 26255.46462282  .00001717  00000-0  38148-3 0  9998
2 38122  98.3228 256.8327 0225151  48.2119 313.8069 14.43799987716874

Suivez FENGYUN 1C DEB en temps réel avec AllMySat

Download on the App Store